Crestview, FL

7:55 AM CDT on August 28, 2016 (GMT -0500)
Sikes

Weather History for KCEW - February, 2013

Change the Weather History Date:

Wednesday, February 6, 2013

  Actual Average Record
Temperature  
Mean Temperature 62 °F -  
Max Temperature 73 °F 57 °F 77 °F (1999)
Min Temperature 52 °F 39 °F 19 °F (2000)
Degree Days  
Heating Degree Days 2    
Growing Degree Days 12 (Base 50)    
Moisture  
Dew Point 56 °F    
Average Humidity 86    
Maximum Humidity 100    
Minimum Humidity 53    
Precipitation  
Precipitation 0.00 in - - ()
Sea Level Pressure  
Sea Level Pressure 30.10 in    
Wind  
Wind Speed 3 mph (NE)    
Max Wind Speed 8 mph    
Max Gust Speed -    
Visibility 6 miles    
Events Fog    
Averages and records for this station are not official NWS values.
T = Trace of Precipitation, MM = Missing Value Source: NWS Daily Summary

Daily Weather History Graph

Daily Weather History Graph

Search for Another Location

Airport or City:

Trip Planner

Search our weather history database for the weather conditions in past years. The results will help you decide how hot, cold, wet, or windy it might be!

Date:

Astronomy

Feb. 06, 2013 Rise Set
Actual Time 6:34 AM CST 5:26 PM CST
Civil Twilight 6:09 AM CST 5:51 PM CST
Nautical Twilight 5:40 AM CST 6:20 PM CST
Astronomical Twilight 5:12 AM CST 6:48 PM CST
Moon 3:09 AM CST (2/6) 1:51 PM CST (2/6)
Length of Visible Light 11h 42m
Length of Day
10h 52m
Waning Crescent, 17% of the Moon is Illuminated
Feb 6
Waning Crescent
Feb 10
New
Feb 17
First Quarter
Feb 25
Full
Mar 4
Last Quarter

Hourly Weather History & Observations

Time (CST) Temp. Dew Point Humidity Pressure Visibility Wind Dir Wind Speed Gust Speed Precip Events Conditions
1:07 AM 55.4 °F 55.4 °F 100% 30.06 in 3.0 mi Calm Calm - N/A   Overcast
1:11 AM 55.4 °F 55.4 °F 100% 30.06 in 1.8 mi NNE 3.5 mph - N/A   Overcast
1:53 AM 55.9 °F 55.9 °F 100% 30.06 in 0.2 mi ENE 3.5 mph - N/A Fog Fog
2:53 AM 57.0 °F 55.9 °F 96% 30.07 in 0.5 mi NE 3.5 mph - N/A Fog Fog
3:34 AM 57.2 °F 55.4 °F 94% 30.08 in 0.8 mi Calm Calm - N/A   Mist
3:43 AM 57.2 °F 55.4 °F 94% 30.08 in 0.5 mi ENE 4.6 mph - N/A Fog Fog
3:53 AM 57.0 °F 55.9 °F 96% 30.08 in 0.8 mi NE 4.6 mph - N/A   Mist
4:07 AM 57.2 °F 55.4 °F 94% 30.08 in 1.0 mi NE 5.8 mph - N/A   Mist
4:26 AM 55.4 °F 55.4 °F 100% 30.09 in 0.8 mi NE 4.6 mph - N/A   Mist
4:53 AM 55.9 °F 55.9 °F 100% 30.09 in 1.0 mi Calm Calm - N/A   Mist
5:53 AM 55.9 °F 55.9 °F 100% 30.11 in 0.8 mi Calm Calm - N/A   Mist
6:02 AM 57.2 °F 55.4 °F 94% 30.12 in 0.5 mi Calm Calm - N/A Fog Fog
6:53 AM 55.9 °F 55.0 °F 97% 30.13 in 0.5 mi NE 4.6 mph - N/A Fog Fog
7:42 AM 55.4 °F 55.4 °F 100% 30.14 in 1.0 mi ENE 6.9 mph - N/A   Mist
7:53 AM 55.9 °F 55.9 °F 100% 30.14 in 0.8 mi NE 4.6 mph - N/A   Overcast
8:20 AM 57.2 °F 55.4 °F 94% 30.15 in 1.8 mi NE 8.1 mph - N/A   Overcast
8:23 AM 57.2 °F 55.4 °F 94% 30.15 in 3.0 mi ENE 5.8 mph - N/A   Overcast
8:43 AM 57.2 °F 57.2 °F 100% 30.15 in 2.5 mi NNE 4.6 mph - N/A   Overcast
8:53 AM 57.0 °F 55.9 °F 96% 30.15 in 4.0 mi ENE 3.5 mph - N/A   Overcast
9:53 AM 60.1 °F 57.0 °F 90% 30.17 in 10.0 mi Variable 4.6 mph - N/A   Overcast
10:01 AM 60.8 °F 57.2 °F 88% 30.17 in 10.0 mi ENE 5.8 mph - N/A   Overcast
10:53 AM 64.9 °F 57.0 °F 75% 30.16 in 10.0 mi NE 5.8 mph - N/A   Mostly Cloudy
11:09 AM 66.2 °F 57.2 °F 73% 30.16 in 10.0 mi ENE 6.9 mph - N/A   Scattered Clouds
11:35 AM 66.2 °F 57.2 °F 73% 30.15 in 10.0 mi Calm Calm - N/A   Mostly Cloudy
11:53 AM 66.9 °F 57.0 °F 70% 30.14 in 10.0 mi NNE 4.6 mph - N/A   Overcast
12:53 PM 69.1 °F 55.9 °F 63% 30.12 in 10.0 mi ENE 5.8 mph - N/A   Mostly Cloudy
1:25 PM 69.8 °F 55.4 °F 60% 30.11 in 10.0 mi Variable 4.6 mph - N/A   Scattered Clouds
1:33 PM 71.6 °F 57.2 °F 60% 30.11 in 10.0 mi Variable 3.5 mph - N/A   Mostly Cloudy
1:53 PM 70.0 °F 55.9 °F 61% 30.10 in 10.0 mi NNE 3.5 mph - N/A   Mostly Cloudy
2:13 PM 73.4 °F 55.4 °F 53% 30.10 in 10.0 mi SE 3.5 mph - N/A   Scattered Clouds
2:53 PM 72.0 °F 55.9 °F 57% 30.08 in 10.0 mi NE 5.8 mph - N/A   Partly Cloudy
3:53 PM 72.0 °F 55.9 °F 57% 30.06 in 10.0 mi ENE 4.6 mph - N/A   Clear
4:53 PM 70.0 °F 57.0 °F 63% 30.06 in 10.0 mi Calm Calm - N/A   Clear
5:53 PM 63.0 °F 57.0 °F 81% 30.06 in 10.0 mi Calm Calm - N/A   Clear
6:53 PM 57.9 °F 55.9 °F 93% 30.08 in 10.0 mi Calm Calm - N/A   Clear
7:53 PM 55.9 °F 54.0 °F 93% 30.08 in 8.0 mi Calm Calm - N/A   Clear
8:53 PM 54.0 °F 53.1 °F 97% 30.07 in 7.0 mi Calm Calm - N/A   Clear
9:53 PM 52.0 °F 51.1 °F 97% 30.06 in 4.0 mi Calm Calm - N/A   Clear
10:53 PM 53.1 °F 52.0 °F 96% 30.08 in 8.0 mi Calm Calm - N/A   Clear
11:53 PM 54.0 °F 53.1 °F 97% 30.07 in 8.0 mi Calm Calm - N/A   Clear